�������l�o���
Date,Time,MP-1(��Sv/h),MP-2(��Sv/h),MP-3(��Sv/h),MP-4(��Sv/h),MP-5(��Sv/h),MP-6(��Sv/h),MP-7(��Sv/h),MP-8(��Sv/h),����,����(m/s),���J
2020/05/30,00:00,0.697,1.006,0.640,1.212,0.870,0.401,0.691,0.650,���k��,2.8,��
2020/05/30,00:10,0.698,1.006,0.639,1.213,0.871,0.402,0.691,0.648,���k��,3.3,��
2020/05/30,00:20,0.699,1.005,0.640,1.213,0.868,0.403,0.689,0.649,�k��,3.7,��
2020/05/30,00:30,0.699,1.007,0.638,1.213,0.871,0.402,0.690,0.649,��,2.6,��
2020/05/30,00:40,0.698,1.007,0.639,1.212,0.873,0.402,0.690,0.650,�쐼,2.2,��
2020/05/30,00:50,0.697,1.005,0.637,1.212,0.870,0.402,0.691,0.650,���쐼,5.1,��
2020/05/30,01:00,0.698,1.005,0.639,1.211,0.871,0.402,0.690,0.648,��,4.7,��
2020/05/30,01:10,0.698,1.007,0.639,1.214,0.873,0.402,0.690,0.650,���k��,2.3,��
2020/05/30,01:20,0.697,1.006,0.639,1.212,0.871,0.400,0.692,0.648,���쐼,1.7,��
2020/05/30,01:30,0.697,1.005,0.640,1.210,0.871,0.402,0.693,0.649,���쐼,2.6,��
2020/05/30,01:40,0.698,1.005,0.639,1.212,0.872,0.400,0.691,0.650,��,2.8,��
2020/05/30,01:50,0.700,1.005,0.638,1.213,0.870,0.402,0.691,0.649,���쐼,3.6,��
2020/05/30,02:00,0.697,1.004,0.639,1.213,0.872,0.402,0.691,0.648,���쐼,5.7,��
2020/05/30,02:10,0.697,1.006,0.639,1.211,0.872,0.402,0.691,0.649,���쐼,5.6,��
2020/05/30,02:20,0.697,1.004,0.638,1.213,0.871,0.401,0.691,0.650,���쐼,4.5,��
2020/05/30,02:30,0.698,1.005,0.640,1.214,0.871,0.402,0.692,0.649,���쐼,4.0,��
2020/05/30,02:40,0.698,1.003,0.638,1.209,0.869,0.402,0.691,0.650,���쐼,3.5,��
2020/05/30,02:50,0.696,1.004,0.639,1.212,0.869,0.402,0.691,0.649,��,3.5,��
2020/05/30,03:00,0.698,1.005,0.639,1.211,0.870,0.403,0.691,0.649,���쐼,2.5,��
2020/05/30,03:10,0.698,1.006,0.639,1.211,0.868,0.402,0.692,0.650,���쐼,3.0,��
2020/05/30,03:20,0.696,1.006,0.640,1.212,0.869,0.400,0.691,0.650,���쐼,3.1,��
2020/05/30,03:30,0.697,1.006,0.640,1.213,0.870,0.398,0.691,0.649,��,3.0,��
2020/05/30,03:40,0.695,1.005,0.639,1.210,0.870,0.401,0.690,0.649,��,2.8,��
2020/05/30,03:50,0.697,1.003,0.637,1.210,0.869,0.400,0.690,0.648,��,2.3,��
2020/05/30,04:00,0.695,1.004,0.639,1.211,0.869,0.402,0.688,0.650,��,1.5,��
2020/05/30,04:10,0.699,1.004,0.638,1.212,0.870,0.401,0.691,0.650,��,2.3,��
2020/05/30,04:20,0.697,1.005,0.639,1.212,0.869,0.401,0.690,0.647,��,3.6,��
2020/05/30,04:30,0.697,1.005,0.639,1.210,0.870,0.400,0.688,0.648,���k��,3.9,��
2020/05/30,04:40,0.697,1.004,0.639,1.212,0.871,0.400,0.691,0.649,���k��,3.2,��
2020/05/30,04:50,0.697,1.005,0.639,1.212,0.870,0.400,0.689,0.650,��,2.6,��
2020/05/30,05:00,0.697,1.006,0.638,1.212,0.869,0.400,0.689,0.649,��,1.5,��
2020/05/30,05:10,0.697,1.006,0.639,1.212,0.869,0.400,0.691,0.650,�쐼,0.9,��
2020/05/30,05:20,0.696,1.005,0.638,1.211,0.870,0.401,0.691,0.650,��,0.8,��
2020/05/30,05:30,0.698,1.005,0.639,1.211,0.869,0.400,0.691,0.649,���쐼,0.9,��
2020/05/30,05:40,0.697,1.004,0.640,1.211,0.870,0.401,0.690,0.648,��,1.5,��
2020/05/30,05:50,0.697,1.005,0.638,1.212,0.872,0.399,0.690,0.650,���쐼,1.7,��
2020/05/30,06:00,0.698,1.006,0.638,1.212,0.869,0.400,0.691,0.648,���쐼,2.0,��
2020/05/30,06:10,0.698,1.007,0.640,1.210,0.869,0.401,0.691,0.650,���쐼,1.7,��
2020/05/30,06:20,0.698,1.002,0.639,1.211,0.871,0.401,0.693,0.649,���쐼,1.5,��
2020/05/30,06:30,0.698,1.003,0.641,1.210,0.871,0.401,0.694,0.652,���쐼,1.5,��
2020/05/30,06:40,0.697,1.004,0.640,1.210,0.870,0.402,0.691,0.650,���쐼,1.7,��
2020/05/30,06:50,0.697,1.004,0.640,1.210,0.873,0.400,0.693,0.649,���쐼,1.2,��
2020/05/30,07:00,0.698,1.005,0.638,1.211,0.870,0.400,0.694,0.651,��쐼,1.4,��
2020/05/30,07:10,0.699,1.005,0.639,1.213,0.872,0.400,0.695,0.650,��,1.1,��
2020/05/30,07:20,0.700,1.004,0.639,1.211,0.871,0.398,0.693,0.650,�k��,0.9,��
2020/05/30,07:30,0.698,1.004,0.641,1.217,0.871,0.399,0.690,0.652,���k��,1.7,��
2020/05/30,07:40,0.697,1.006,0.639,1.214,0.872,0.399,0.691,0.651,��,1.5,��
2020/05/30,07:50,0.697,1.005,0.638,1.212,0.871,0.398,0.692,0.650,���k��,1.4,��
2020/05/30,08:00,0.695,1.004,0.638,1.211,0.869,0.399,0.691,0.649,���k��,1.7,��
2020/05/30,08:10,0.695,1.003,0.640,1.216,0.869,0.399,0.691,0.650,��,1.5,��
2020/05/30,08:20,0.695,1.005,0.639,1.213,0.871,0.400,0.692,0.648,��,2.0,��
2020/05/30,08:30,0.696,1.003,0.632,1.214,0.871,0.399,0.690,0.649,���쓌,2.0,��
2020/05/30,08:40,0.698,1.001,0.631,1.215,0.871,0.401,0.692,0.648,��,1.7,��
2020/05/30,08:50,0.696,1.000,0.632,1.214,0.872,0.398,0.691,0.648,��,1.5,��
2020/05/30,09:00,0.698,1.003,0.641,1.213,0.870,0.400,0.691,0.648,���쓌,1.2,��
2020/05/30,09:10,0.697,1.000,0.637,1.215,0.872,0.399,0.691,0.649,���쓌,2.3,��
2020/05/30,09:20,0.697,1.002,0.629,1.214,0.870,0.401,0.692,0.647,���쓌,1.7,��
2020/05/30,09:30,0.697,1.002,0.632,1.215,0.870,0.400,0.691,0.648,���쓌,2.3,��
2020/05/30,09:40,0.698,1.000,0.634,1.216,0.871,0.400,0.691,0.648,���쓌,2.0,��
2020/05/30,09:50,0.699,1.002,0.636,1.218,0.871,0.400,0.692,0.648,�쓌,1.9,��
2020/05/30,10:00,0.698,1.001,0.633,1.215,0.872,0.399,0.691,0.648,�쓌,2.8,��
2020/05/30,10:10,0.697,1.000,0.633,1.217,0.874,0.400,0.692,0.649,�쓌,3.3,��
2020/05/30,10:20,0.697,1.002,0.635,1.217,0.872,0.398,0.692,0.649,�쓌,3.1,��
2020/05/30,10:30,0.700,1.005,0.634,1.214,0.873,0.399,0.692,0.649,�쓌,3.9,��
2020/05/30,10:40,0.698,1.004,0.635,1.216,0.874,0.400,0.692,0.647,�쓌,2.6,��
2020/05/30,10:50,0.699,1.007,0.635,1.215,0.873,0.401,0.691,0.649,�쓌,3.1,��
2020/05/30,11:00,0.699,1.006,0.636,1.215,0.873,0.399,0.693,0.648,�쓌,3.2,��
2020/05/30,11:10,0.699,1.006,0.635,1.214,0.875,0.400,0.691,0.649,�쓌,4.3,��
2020/05/30,11:20,0.700,1.004,0.636,1.214,0.875,0.399,0.691,0.649,�쓌,2.8,��
2020/05/30,11:30,0.701,1.009,0.636,1.210,0.874,0.401,0.691,0.648,�쓌,4.3,��
2020/05/30,11:40,0.700,1.007,0.637,1.214,0.876,0.400,0.693,0.649,�쓌,4.4,��
2020/05/30,11:50,0.701,1.007,0.636,1.215,0.875,0.400,0.693,0.651,�쓌,4.5,��
2020/05/30,12:00,0.700,1.007,0.639,1.213,0.875,0.401,0.693,0.649,��쓌,4.1,��
2020/05/30,12:10,0.701,1.011,0.639,1.214,0.876,0.401,0.692,0.648,�쓌,5.3,��
2020/05/30,12:20,0.702,1.010,0.640,1.215,0.875,0.399,0.693,0.647,�쓌,4.8,��
2020/05/30,12:30,0.700,1.012,0.637,1.213,0.876,0.401,0.693,0.649,�쓌,4.7,��
2020/05/30,12:40,0.700,1.012,0.637,1.214,0.876,0.400,0.693,0.649,�쓌,4.5,��
2020/05/30,12:50,0.699,1.008,0.636,1.215,0.879,0.401,0.693,0.648,�쓌,4.2,��
2020/05/30,13:00,0.702,1.006,0.639,1.216,0.879,0.400,0.693,0.651,�쓌,4.7,��
2020/05/30,13:10,0.703,1.008,0.636,1.216,0.880,0.400,0.694,0.650,��쓌,3.7,��
2020/05/30,13:20,0.700,1.011,0.637,1.215,0.879,0.402,0.693,0.649,��쓌,5.1,��
2020/05/30,13:30,0.703,1.012,0.636,1.214,0.878,0.402,0.694,0.650,�쓌,6.2,��
2020/05/30,13:40,0.702,1.007,0.635,1.215,0.879,0.401,0.693,0.650,��쓌,6.3,��
2020/05/30,13:50,0.701,1.010,0.631,1.214,0.879,0.400,0.693,0.649,��쓌,6.6,��
2020/05/30,14:00,0.702,1.009,0.634,1.216,0.879,0.403,0.693,0.649,��쓌,6.0,��
2020/05/30,14:10,0.703,1.011,0.634,1.216,0.877,0.401,0.693,0.648,��쓌,5.7,��
2020/05/30,14:20,0.702,1.013,0.631,1.215,0.879,0.403,0.693,0.648,��쓌,5.0,��
2020/05/30,14:30,0.703,1.007,0.637,1.215,0.879,0.402,0.692,0.650,��쓌,5.5,��
2020/05/30,14:40,0.702,1.010,0.639,1.218,0.879,0.402,0.694,0.649,��쓌,7.2,��
2020/05/30,14:50,0.701,1.009,0.639,1.219,0.879,0.403,0.693,0.649,��쓌,6.0,��
2020/05/30,15:00,0.703,1.012,0.640,1.217,0.878,0.402,0.694,0.649,��쓌,5.8,��
2020/05/30,15:10,0.699,1.011,0.641,1.217,0.877,0.403,0.691,0.649,��쓌,6.5,��
2020/05/30,15:20,0.704,1.012,0.642,1.215,0.880,0.403,0.695,0.649,��쓌,6.6,��
2020/05/30,15:30,0.702,1.016,0.642,1.217,0.879,0.404,0.694,0.649,��쓌,6.5,��
2020/05/30,15:40,0.701,1.014,0.641,1.217,0.879,0.402,0.694,0.649,��쓌,5.1,��
2020/05/30,15:50,0.702,1.015,0.642,1.218,0.879,0.403,0.692,0.650,��쓌,6.5,��
2020/05/30,16:00,0.703,1.015,0.641,1.217,0.878,0.404,0.693,0.650,��,8.2,��
2020/05/30,16:10,0.699,1.014,0.639,1.219,0.879,0.402,0.694,0.649,��쓌,8.2,��
2020/05/30,16:20,0.703,1.013,0.640,1.216,0.879,0.403,0.692,0.650,��쓌,10.6,��
2020/05/30,16:30,0.700,1.014,0.642,1.215,0.880,0.401,0.695,0.648,��쓌,10.5,��
2020/05/30,16:40,0.702,1.014,0.639,1.216,0.878,0.402,0.693,0.649,��,8.7,��
2020/05/30,16:50,0.704,1.013,0.641,1.217,0.877,0.404,0.693,0.649,��,8.8,��
2020/05/30,17:00,0.702,1.012,0.641,1.217,0.878,0.404,0.692,0.649,��,7.4,��
2020/05/30,17:10,0.703,1.015,0.640,1.219,0.879,0.402,0.693,0.649,��쓌,7.6,��
2020/05/30,17:20,0.702,1.015,0.640,1.219,0.879,0.402,0.693,0.649,��,9.8,��
2020/05/30,17:30,0.703,1.014,0.642,1.218,0.880,0.402,0.692,0.649,��,8.0,��
2020/05/30,17:40,0.704,1.017,0.640,1.221,0.879,0.405,0.693,0.649,��,7.9,��
2020/05/30,17:50,0.701,1.016,0.640,1.218,0.879,0.403,0.693,0.650,��,7.6,��
2020/05/30,18:00,0.701,1.016,0.642,1.218,0.878,0.405,0.692,0.650,��,8.4,��
2020/05/30,18:10,0.702,1.015,0.642,1.219,0.877,0.403,0.692,0.652,��,10.2,��
2020/05/30,18:20,0.702,1.019,0.642,1.218,0.878,0.405,0.690,0.650,��,10.0,��
2020/05/30,18:30,0.703,1.017,0.641,1.220,0.877,0.404,0.691,0.652,��,9.3,��
2020/05/30,18:40,0.701,1.018,0.641,1.221,0.880,0.402,0.693,0.651,��,8.5,��
2020/05/30,18:50,0.702,1.016,0.640,1.220,0.878,0.404,0.690,0.654,��,8.5,��
2020/05/30,19:00,0.701,1.016,0.639,1.221,0.878,0.404,0.693,0.652,��,7.7,��
2020/05/30,19:10,0.702,1.017,0.640,1.220,0.879,0.403,0.694,0.651,��,7.1,��
2020/05/30,19:20,0.701,1.018,0.641,1.221,0.881,0.405,0.693,0.653,��,7.2,��
2020/05/30,19:30,0.703,1.016,0.643,1.222,0.880,0.402,0.696,0.651,��,6.5,��
2020/05/30,19:40,0.705,1.016,0.644,1.223,0.879,0.404,0.694,0.650,��,6.0,��
2020/05/30,19:50,0.702,1.019,0.642,1.224,0.882,0.404,0.695,0.651,��,5.7,��
2020/05/30,20:00,0.703,1.019,0.643,1.222,0.881,0.404,0.694,0.651,��,5.5,��
2020/05/30,20:10,0.702,1.017,0.644,1.222,0.881,0.404,0.695,0.650,��,5.4,��
2020/05/30,20:20,0.705,1.019,0.644,1.221,0.882,0.404,0.695,0.651,��,5.5,��
2020/05/30,20:30,0.704,1.018,0.644,1.221,0.878,0.405,0.694,0.651,��,5.4,��
2020/05/30,20:40,0.702,1.019,0.643,1.222,0.881,0.404,0.695,0.652,��,5.6,��
2020/05/30,20:50,0.704,1.017,0.642,1.221,0.881,0.405,0.695,0.652,��,4.8,��
2020/05/30,21:00,0.704,1.016,0.644,1.220,0.881,0.404,0.695,0.651,��쐼,4.8,��
2020/05/30,21:10,0.704,1.018,0.643,1.221,0.881,0.404,0.694,0.652,��,5.0,��
2020/05/30,21:20,0.706,1.019,0.644,1.221,0.880,0.405,0.693,0.651,��,4.9,��
2020/05/30,21:30,0.705,1.014,0.643,1.221,0.880,0.404,0.692,0.651,��쐼,5.4,��
2020/05/30,21:40,0.703,1.017,0.643,1.221,0.879,0.405,0.694,0.652,��쐼,4.4,��
2020/05/30,21:50,0.706,1.015,0.643,1.220,0.879,0.404,0.695,0.651,��쐼,4.2,��
2020/05/30,22:00,0.705,1.017,0.644,1.219,0.880,0.405,0.696,0.651,��쐼,4.4,��
2020/05/30,22:10,0.704,1.016,0.642,1.221,0.881,0.403,0.695,0.652,��쐼,3.4,��
2020/05/30,22:20,0.703,1.016,0.644,1.221,0.880,0.405,0.696,0.650,��쐼,3.4,��
2020/05/30,22:30,0.704,1.016,0.641,1.222,0.879,0.404,0.694,0.651,��쐼,3.1,��
2020/05/30,22:40,0.705,1.016,0.643,1.224,0.881,0.403,0.694,0.651,��,4.2,��
2020/05/30,22:50,0.702,1.015,0.643,1.221,0.877,0.404,0.694,0.650,��쐼,4.0,��
2020/05/30,23:00,0.703,1.014,0.642,1.221,0.881,0.405,0.695,0.651,��쐼,4.1,��
2020/05/30,23:10,0.705,1.016,0.643,1.220,0.879,0.404,0.694,0.652,��쐼,3.8,��
2020/05/30,23:20,0.703,1.016,0.642,1.220,0.880,0.404,0.692,0.651,��쐼,4.6,��
2020/05/30,23:30,0.705,1.015,0.643,1.220,0.880,0.405,0.694,0.651,��쐼,4.2,��
2020/05/30,23:40,0.703,1.014,0.642,1.221,0.880,0.405,0.694,0.652,��쐼,4.5,��
2020/05/30,23:50,0.704,1.015,0.643,1.222,0.880,0.405,0.695,0.651,��쐼,4.4,��
